SCP
0 0 0 0 0 0 0 0 0 0 0 0 0 0 0 0 0 0 0 0 0 0 0 0 0 0 0
0 0 0 0 0 0 0 0 0 0 0 0 0 0 0 0 0 0 0 0 0 0 0 0 0 0 0
0 0 0 0 0 0 0 0 0 0 0 0 0 0 0 0 0 0 0 0 0 0 0 0 0 0 0
0 0 0 0 0 0 0 0 0 0 0 0 0 0 0 0 0 0 0 0 0 0 0 0 0 0 0
0 0 0 0 0 0 0 0 0 0 0 0 0 0 0 0 0 0 0 0 0 0 0 0 0 0 0
0 0 0 0 0 0 0 0 0 0 0 0 0 0 0 0 0 0 0 0 0 0 0 0 0 0 0
0 0 0 0 0 0 0 0 0 0 0 0 0 0 0 0 0 0 0 0 0 0 0 0 0 0 0
0 0 0 0 0 0 0 0 0 0 0 0 0 0 0 0 0 0 0 0 0 0 0 0 0 0 0
0 0 0 0 0 0 0 0 0 0 0 0 0 0 0 0 0 0 0 0 0 0 0 0 0 0 0
0 0 0 0 0 0 0 0 0 0 0 0 0 0 0 0 0 0 0 0 0 0 0 0 0 0 0
0 0 0 0 0 0 0 0 0 0 0 0 0 0 0 0 0 0 0 0 0 0 0 0 0 0 0
0 0 0 0 0 0 0 0 0 0 0 0 0 0 0 0 0 0 0 0 0 0 0 0 0 0 0
0 0 0 0 0 0 0 0 0 0 0 0 0 0 0 0 0 0 0 0 0 0 0 0 0 0 0
0 0 0 0 0 0 0 0 0 0 0 0 0 0 0 0 0 0 0 0 0 0 0 0 0 0 0
0 0 0 0 0 0 0 0 0 0 0 0 0 0 0 0 0 0 0 0 0 0 0 0 0 0 0
0 0 0 0 0 0 0 0 0 0 0 0 0 0 0 0 0 0 0 0 0 0 0 0 0 0 0
0 0 0 0 0 0 0 0 0 0 0 0 0 0 0 0 0 0 0 0 0 0 0 0 0 0 0
Wind_Speed_500mb
76 64 57 77 88 85 86 83 81 78 75 72 69 64 62 56 55 59 58 59 59 58 62 57 56 55 63
88 77 67 56 73 81 85 84 93 87 80 75 71 70 65 62 63 64 66 65 67 71 72 72 67 67 64
92 83 71 56 61 63 62 66 74 77 75 74 72 70 66 63 58 57 55 54 52 53 59 62 63 64 65
101 91 82 68 65 60 63 63 63 64 64 61 59 55 53 53 51 54 53 51 51 55 58 57 58 58 61
106 93 88 85 85 77 67 65 63 59 58 56 55 55 54 53 53 55 52 51 53 56 58 58 60 59 60
110 111 103 100 94 85 74 74 72 66 62 62 62 63 60 59 57 56 57 60 62 57 59 61 65 62 61
115 111 111 111 103 95 83 82 79 71 67 68 68 68 62 61 58 57 61 62 62 62 62 61 59 58 60
99 100 98 103 102 93 87 80 74 69 67 70 65 62 60 60 57 57 59 62 64 61 61 58 56 56 57
87 81 82 83 77 75 79 75 79 75 75 69 69 67 63 51 52 52 54 56 59 60 56 52 52 52 55
100 92 92 98 86 85 88 80 81 80 69 67 64 58 57 58 53 57 57 53 56 58 52 51 52 55 58
101 105 105 104 99 93 86 82 83 80 74 63 59 57 58 53 49 46 47 46 53 54 53 51 52 52 49
102 104 110 111 106 94 83 77 72 67 60 63 53 51 53 55 50 51 54 49 45 42 40 42 50 51 47
110 110 110 107 99 85 76 75 63 60 56 60 59 57 57 54 52 50 42 49 50 46 44 45 42 46 47
106 99 83 86 81 82 81 73 71 70 65 60 58 59 55 57 55 54 47 44 40 39 44 47 47 49 48
93 87 83 88 97 93 81 71 77 70 65 62 60 61 55 54 54 53 53 50 46 44 44 44 44 46 42
85 85 88 91 84 76 72 66 67 63 68 64 66 59 59 60 56 52 52 51 48 46 44 41 41 40 39
99 96 99 85 85 74 62 60 72 69 70 65 59 63 67 61 54 53 47 44 39 38 37 37 33 32 33
Wind_Direction_500mb
249 250 254 248 237 236 239 236 235 241 245 243 245 247 249 251 252 256 258 258 261 264 267 269 268 275 275
245 246 248 252 235 237 238 241 240 245 242 246 249 248 248 248 251 254 256 261 259 256 255 260 265 269 269
243 243 242 237 225 231 234 237 237 237 239 243 249 249 248 247 247 249 253 254 263 266 263 261 263 265 267
237 236 237 228 224 233 235 235 231 229 232 235 239 239 236 238 240 243 250 261 265 266 266 266 265 268 271
231 229 226 224 227 230 235 233 233 232 230 231 233 236 238 241 245 249 254 262 265 272 266 265 266 269 271
231 226 225 227 232 232 236 231 230 230 231 233 236 240 243 242 250 254 258 261 266 271 267 265 264 265 266
233 228 226 230 232 234 237 233 232 234 234 239 242 245 248 250 252 254 257 258 264 266 265 266 265 265 268
237 240 240 239 239 240 237 232 234 238 241 242 247 248 249 250 253 254 259 263 262 263 265 263 262 265 266
236 235 242 239 235 232 229 232 232 235 237 244 247 254 254 246 252 255 263 261 257 259 257 256 261 263 262
229 238 235 236 231 228 230 229 232 237 234 237 242 243 242 249 258 262 265 261 262 258 249 254 258 263 264
233 228 228 230 230 225 228 230 235 233 239 240 238 237 246 252 258 258 268 268 259 248 253 257 260 262 267
229 226 227 226 227 225 231 235 235 230 236 233 237 240 246 249 251 261 269 264 249 242 248 260 259 264 268
224 223 225 225 221 222 223 231 221 223 226 233 238 245 247 254 260 255 247 248 243 246 254 252 255 263 257
221 223 224 223 225 224 219 214 216 224 224 231 244 243 243 253 252 249 241 231 233 243 257 252 257 258 258
224 225 216 217 220 217 210 213 221 223 231 229 243 242 239 243 239 238 237 241 251 255 255 254 255 251 248
221 218 210 213 205 206 210 217 226 228 230 237 236 229 232 230 232 234 239 243 248 251 252 252 251 250 251
213 212 200 202 200 203 214 222 225 226 232 229 230 234 227 222 224 229 236 237 240 238 242 247 248 251 259
Wind_Speed_850mb
76 64 57 77 88 85 86 83 81 78 75 72 69 64 62 56 55 59 58 59 59 58 62 57 56 55 63
88 77 67 56 73 81 85 84 93 87 80 75 71 70 65 62 63 64 66 65 67 71 72 72 67 67 64
92 83 71 56 61 63 62 66 74 77 75 74 72 70 66 63 58 57 55 54 52 53 59 62 63 64 65
101 91 82 68 65 60 63 63 63 64 64 61 59 55 53 53 51 54 53 51 51 55 58 57 58 58 61
106 93 88 85 85 77 67 65 63 59 58 56 55 55 54 53 53 55 52 51 53 56 58 58 60 59 60
110 111 103 100 94 85 74 74 72 66 62 62 62 63 60 59 57 56 57 60 62 57 59 61 65 62 61
115 111 111 111 103 95 83 82 79 71 67 68 68 68 62 61 58 57 61 62 62 62 62 61 59 58 60
99 100 98 103 102 93 87 80 74 69 67 70 65 62 60 60 57 57 59 62 64 61 61 58 56 56 57
87 81 82 83 77 75 79 75 79 75 75 69 69 67 63 51 52 52 54 56 59 60 56 52 52 52 55
100 92 92 98 86 85 88 80 81 80 69 67 64 58 57 58 53 57 57 53 56 58 52 51 52 55 58
101 105 105 104 99 93 86 82 83 80 74 63 59 57 58 53 49 46 47 46 53 54 53 51 52 52 49
102 104 110 111 106 94 83 77 72 67 60 63 53 51 53 55 50 51 54 49 45 42 40 42 50 51 47
110 110 110 107 99 85 76 75 63 60 56 60 59 57 57 54 52 50 42 49 50 46 44 45 42 46 47
106 99 83 86 81 82 81 73 71 70 65 60 58 59 55 57 55 54 47 44 40 39 44 47 47 49 48
93 87 83 88 97 93 81 71 77 70 65 62 60 61 55 54 54 53 53 50 46 44 44 44 44 46 42
85 85 88 91 84 76 72 66 67 63 68 64 66 59 59 60 56 52 52 51 48 46 44 41 41 40 39
99 96 99 85 85 74 62 60 72 69 70 65 59 63 67 61 54 53 47 44 39 38 37 37 33 32 33
Wind_Direction_850mb
249 250 254 248 237 236 239 236 235 241 245 243 245 247 249 251 252 256 258 258 261 264 267 269 268 275 275
245 246 248 252 235 237 238 241 240 245 242 246 249 248 248 248 251 254 256 261 259 256 255 260 265 269 269
243 243 242 237 225 231 234 237 237 237 239 243 249 249 248 247 247 249 253 254 263 266 263 261 263 265 267
237 236 237 228 224 233 235 235 231 229 232 235 239 239 236 238 240 243 250 261 265 266 266 266 265 268 271
231 229 226 224 227 230 235 233 233 232 230 231 233 236 238 241 245 249 254 262 265 272 266 265 266 269 271
231 226 225 227 232 232 236 231 230 230 231 233 236 240 243 242 250 254 258 261 266 271 267 265 264 265 266
233 228 226 230 232 234 237 233 232 234 234 239 242 245 248 250 252 254 257 258 264 266 265 266 265 265 268
237 240 240 239 239 240 237 232 234 238 241 242 247 248 249 250 253 254 259 263 262 263 265 263 262 265 266
236 235 242 239 235 232 229 232 232 235 237 244 247 254 254 246 252 255 263 261 257 259 257 256 261 263 262
229 238 235 236 231 228 230 229 232 237 234 237 242 243 242 249 258 262 265 261 262 258 249 254 258 263 264
233 228 228 230 230 225 228 230 235 233 239 240 238 237 246 252 258 258 268 268 259 248 253 257 260 262 267
229 226 227 226 227 225 231 235 235 230 236 233 237 240 246 249 251 261 269 264 249 242 248 260 259 264 268
224 223 225 225 221 222 223 231 221 223 226 233 238 245 247 254 260 255 247 248 243 246 254 252 255 263 257
221 223 224 223 225 224 219 214 216 224 224 231 244 243 243 253 252 249 241 231 233 243 257 252 257 258 258
224 225 216 217 220 217 210 213 221 223 231 229 243 242 239 243 239 238 237 241 251 255 255 254 255 251 248
221 218 210 213 205 206 210 217 226 228 230 237 236 229 232 230 232 234 239 243 248 251 252 252 251 250 251
213 212 200 202 200 203 214 222 225 226 232 229 230 234 227 222 224 229 236 237 240 238 242 247 248 251 259